Wetterdaten: Freitag, 29.11.2013
Datum Zeit Temperatur Luftfeuchte Luftdruck Regen Wind Richtung Richtung Taupunkt Windchill Windben
29.11.2013 00:00 -2,0 C 92 % 1028,6 hPa 0,0 l/m 3,4 km/h (1 Bft) SO 135 -3,1 C -3,0 C 7,4 km/h (2 Bft)
29.11.2013 00:05 -2,0 C 92 % 1028,4 hPa 0,0 l/m 4,3 km/h (1 Bft) NO 45 -3,1 C -3,2 C 0,0 km/h (0 Bft)
29.11.2013 00:10 -2,1 C 92 % 1028,4 hPa 0,0 l/m 2,4 km/h (1 Bft) N-NW 337 -3,2 C -1,9 C 0,0 km/h (0 Bft)
29.11.2013 00:15 -2,1 C 92 % 1028,4 hPa 0,0 l/m 0,2 km/h (0 Bft) N-NW 337 -3,2 C -1,8 C 0,0 km/h (0 Bft)
29.11.2013 00:20 -2,1 C 92 % 1028,4 hPa 0,0 l/m 0,0 km/h (0 Bft) N-NW 337 -3,2 C -1,9 C 0,0 km/h (0 Bft)
29.11.2013 00:25 -2,1 C 92 % 1028,4 hPa 0,0 l/m 0,0 km/h (0 Bft) N-NW 337 -3,2 C -2,0 C 0,0 km/h (0 Bft)
29.11.2013 00:30 -2,1 C 92 % 1028,4 hPa 0,0 l/m 0,0 km/h (0 Bft) N 360 -3,2 C -2,0 C 0,0 km/h (0 Bft)
29.11.2013 00:35 -2,1 C 92 % 1028,4 hPa 0,0 l/m 0,0 km/h (0 Bft) N 360 -3,2 C -2,1 C 0,0 km/h (0 Bft)
29.11.2013 00:40 -2,1 C 92 % 1028,4 hPa 0,0 l/m 0,0 km/h (0 Bft) N 360 -3,2 C -2,1 C 0,0 km/h (0 Bft)
29.11.2013 00:45 -2,2 C 92 % 1028,1 hPa 0,0 l/m 0,0 km/h (0 Bft) N 360 -3,3 C -2,2 C 0,0 km/h (0 Bft)
29.11.2013 00:50 -2,2 C 92 % 1028,1 hPa 0,0 l/m 0,0 km/h (0 Bft) N 360 -3,3 C -2,3 C 0,0 km/h (0 Bft)
29.11.2013 00:55 -2,4 C 92 % 1028,1 hPa 0,0 l/m 0,0 km/h (0 Bft) N 360 -3,5 C -2,3 C 0,0 km/h (0 Bft)
29.11.2013 01:00 -2,4 C 92 % 1028,1 hPa 0,0 l/m 0,0 km/h (0 Bft) N 360 -3,5 C -2,3 C 0,0 km/h (0 Bft)
29.11.2013 01:05 -2,3 C 92 % 1028,1 hPa 0,0 l/m 0,0 km/h (0 Bft) N 360 -3,4 C -2,3 C 0,0 km/h (0 Bft)
29.11.2013 01:10 -2,2 C 92 % 1028,1 hPa 0,0 l/m 0,0 km/h (0 Bft) N 360 -3,3 C -2,3 C 0,0 km/h (0 Bft)
29.11.2013 01:15 -2,1 C 92 % 1028,1 hPa 0,0 l/m 0,0 km/h (0 Bft) N 360 -3,2 C -2,2 C 0,0 km/h (0 Bft)
29.11.2013 01:19 -2,1 C 92 % 1028,1 hPa 0,0 l/m 0,0 km/h (0 Bft) N-NO 22 -3,2 C -2,2 C 0,0 km/h (0 Bft)
29.11.2013 01:20 -2,1 C 92 % 1028,1 hPa 0,0 l/m 0,0 km/h (0 Bft) N-NO 22 -3,2 C -2,2 C 0,0 km/h (0 Bft)
29.11.2013 01:25 -2,1 C 92 % 1028,1 hPa 0,0 l/m 0,0 km/h (0 Bft) N-NO 22 -3,2 C -2,1 C 0,0 km/h (0 Bft)
29.11.2013 01:30 -2,1 C 92 % 1028,1 hPa 0,0 l/m 0,6 km/h (0 Bft) NO 45 -3,2 C -2,1 C 3,1 km/h (1 Bft)
29.11.2013 01:35 -2,0 C 92 % 1028,1 hPa 0,0 l/m 1,0 km/h (0 Bft) NO 45 -3,1 C -2,1 C 3,5 km/h (1 Bft)
29.11.2013 01:40 -2,0 C 92 % 1028,1 hPa 0,0 l/m 0,6 km/h (0 Bft) N-NW 337 -3,1 C -2,0 C 0,0 km/h (0 Bft)
29.11.2013 01:45 -2,0 C 92 % 1028,1 hPa 0,0 l/m 0,5 km/h (0 Bft) N-NW 337 -3,1 C -2,0 C 0,0 km/h (0 Bft)
29.11.2013 01:50 -1,9 C 92 % 1028,1 hPa 0,0 l/m 0,3 km/h (0 Bft) NW 315 -3,0 C -1,9 C 0,0 km/h (0 Bft)
29.11.2013 01:55 -2,0 C 92 % 1028,1 hPa 0,0 l/m 0,0 km/h (0 Bft) W-NW 292 -3,1 C -1,9 C 0,0 km/h (0 Bft)
29.11.2013 02:00 -1,9 C 92 % 1028,1 hPa 0,0 l/m 0,0 km/h (0 Bft) W-NW 292 -3,0 C -1,9 C 0,0 km/h (0 Bft)
29.11.2013 02:05 -1,9 C 92 % 1028,1 hPa 0,0 l/m 0,0 km/h (0 Bft) W-NW 292 -3,0 C -1,9 C 0,0 km/h (0 Bft)
29.11.2013 02:10 -2,0 C 92 % 1028,1 hPa 0,0 l/m 0,0 km/h (0 Bft) W-NW 292 -3,1 C -1,9 C 0,0 km/h (0 Bft)
29.11.2013 02:15 -2,0 C 92 % 1028,1 hPa 0,0 l/m 0,0 km/h (0 Bft) W-NW 292 -3,1 C -1,9 C 0,0 km/h (0 Bft)
29.11.2013 02:20 -2,0 C 92 % 1028,1 hPa 0,0 l/m 0,0 km/h (0 Bft) W-NW 292 -3,1 C -1,9 C 0,0 km/h (0 Bft)
29.11.2013 02:25 -2,0 C 92 % 1028,2 hPa 0,0 l/m 0,0 km/h (0 Bft) W-NW 292 -3,1 C -1,9 C 0,0 km/h (0 Bft)
29.11.2013 02:30 -2,0 C 92 % 1028,2 hPa 0,0 l/m 0,0 km/h (0 Bft) W-NW 292 -3,1 C -1,9 C 0,0 km/h (0 Bft)
29.11.2013 02:35 -2,0 C 92 % 1028,2 hPa 0,0 l/m 0,0 km/h (0 Bft) W-NW 292 -3,1 C -2,0 C 0,0 km/h (0 Bft)
29.11.2013 02:40 -2,0 C 92 % 1028,2 hPa 0,0 l/m 0,0 km/h (0 Bft) W-NW 292 -3,1 C -2,0 C 0,0 km/h (0 Bft)
29.11.2013 02:45 -2,0 C 92 % 1028,1 hPa 0,0 l/m 0,0 km/h (0 Bft) W-NW 292 -3,1 C -2,0 C 0,0 km/h (0 Bft)
29.11.2013 02:50 -2,0 C 92 % 1028,1 hPa 0,0 l/m 0,0 km/h (0 Bft) W-NW 292 -3,1 C -2,1 C 1,6 km/h (1 Bft)
29.11.2013 02:55 -2,2 C 92 % 1028,1 hPa 0,0 l/m 0,0 km/h (0 Bft) N 360 -3,3 C -2,1 C 0,0 km/h (0 Bft)
29.11.2013 03:00 -2,2 C 92 % 1028,1 hPa 0,0 l/m 0,0 km/h (0 Bft) N-NW 337 -3,3 C -2,2 C 0,0 km/h (0 Bft)
29.11.2013 03:05 -2,1 C 92 % 1028,1 hPa 0,0 l/m 0,0 km/h (0 Bft) NW 315 -3,2 C -2,2 C 0,0 km/h (0 Bft)
29.11.2013 03:10 -2,1 C 92 % 1028,1 hPa 0,0 l/m 0,0 km/h (0 Bft) NW 315 -3,2 C -2,2 C 0,0 km/h (0 Bft)
29.11.2013 03:15 -2,1 C 92 % 1028,1 hPa 0,0 l/m 0,0 km/h (0 Bft) NW 315 -3,2 C -2,2 C 0,0 km/h (0 Bft)
29.11.2013 03:20 -2,1 C 92 % 1028,1 hPa 0,0 l/m 0,0 km/h (0 Bft) N 360 -3,2 C -2,1 C 0,0 km/h (0 Bft)
29.11.2013 03:25 -2,1 C 92 % 1028,1 hPa 0,0 l/m 0,0 km/h (0 Bft) W-NW 292 -3,2 C -2,1 C 0,0 km/h (0 Bft)
29.11.2013 03:30 -2,0 C 92 % 1028,1 hPa 0,0 l/m 0,0 km/h (0 Bft) N-NO 22 -3,1 C -2,1 C 0,0 km/h (0 Bft)
29.11.2013 03:35 -1,9 C 92 % 1028,1 hPa 0,0 l/m 0,2 km/h (0 Bft) SO 135 -3,0 C -2,0 C 3,7 km/h (1 Bft)
29.11.2013 03:40 -1,9 C 92 % 1028,1 hPa 0,0 l/m 0,5 km/h (0 Bft) S 180 -3,0 C -1,9 C 1,8 km/h (1 Bft)
29.11.2013 03:45 -1,8 C 92 % 1027,9 hPa 0,0 l/m 1,0 km/h (0 Bft) S 180 -2,9 C -1,9 C 3,9 km/h (1 Bft)
29.11.2013 03:50 -1,7 C 92 % 1027,9 hPa 0,0 l/m 1,4 km/h (1 Bft) O 90 -2,8 C -1,8 C 3,1 km/h (1 Bft)
29.11.2013 03:55 -1,8 C 92 % 1027,9 hPa 0,0 l/m 1,6 km/h (1 Bft) SO 135 -2,9 C -1,8 C 4,3 km/h (1 Bft)
29.11.2013 04:00 -1,9 C 92 % 1027,9 hPa 0,0 l/m 0,8 km/h (0 Bft) SO 135 -3,0 C -1,8 C 0,0 km/h (0 Bft)
29.11.2013 04:05 -1,9 C 92 % 1027,7 hPa 0,0 l/m 0,0 km/h (0 Bft) O-SO 112 -3,0 C -1,8 C 0,0 km/h (0 Bft)
29.11.2013 04:10 -1,9 C 92 % 1027,7 hPa 0,0 l/m 0,0 km/h (0 Bft) NO 45 -3,0 C -1,8 C 0,0 km/h (0 Bft)
29.11.2013 04:15 -1,9 C 92 % 1027,7 hPa 0,0 l/m 0,0 km/h (0 Bft) NO 45 -3,0 C -1,8 C 0,0 km/h (0 Bft)
29.11.2013 04:20 -1,9 C 92 % 1027,7 hPa 0,0 l/m 0,0 km/h (0 Bft) NO 45 -3,0 C -1,9 C 0,0 km/h (0 Bft)
29.11.2013 04:25 -1,9 C 92 % 1027,6 hPa 0,0 l/m 0,0 km/h (0 Bft) NO 45 -3,0 C -1,9 C 0,0 km/h (0 Bft)
29.11.2013 04:30 -1,9 C 92 % 1027,6 hPa 0,0 l/m 0,0 km/h (0 Bft) NO 45 -3,0 C -1,9 C 0,0 km/h (0 Bft)
29.11.2013 04:35 -2,0 C 92 % 1027,6 hPa 0,0 l/m 0,0 km/h (0 Bft) NO 45 -3,1 C -1,9 C 0,0 km/h (0 Bft)
29.11.2013 04:40 -2,0 C 92 % 1027,6 hPa 0,0 l/m 0,0 km/h (0 Bft) NO 45 -3,1 C -2,0 C 0,0 km/h (0 Bft)
29.11.2013 04:45 -2,0 C 92 % 1027,5 hPa 0,0 l/m 0,0 km/h (0 Bft) NO 45 -3,1 C -2,0 C 0,0 km/h (0 Bft)
29.11.2013 04:50 -2,0 C 92 % 1027,5 hPa 0,0 l/m 0,0 km/h (0 Bft) NO 45 -3,1 C -2,0 C 0,0 km/h (0 Bft)
29.11.2013 04:55 -2,0 C 92 % 1027,5 hPa 0,0 l/m 0,0 km/h (0 Bft) NO 45 -3,1 C -2,0 C 0,0 km/h (0 Bft)
29.11.2013 05:00 -2,0 C 92 % 1027,5 hPa 0,0 l/m 0,0 km/h (0 Bft) NO 45 -3,1 C -2,0 C 0,0 km/h (0 Bft)
29.11.2013 05:05 -2,0 C 92 % 1027,5 hPa 0,0 l/m 0,0 km/h (0 Bft) NO 45 -3,1 C -2,0 C 0,0 km/h (0 Bft)
29.11.2013 05:10 -2,0 C 92 % 1027,5 hPa 0,0 l/m 0,0 km/h (0 Bft) NO 45 -3,1 C -2,1 C 0,0 km/h (0 Bft)
29.11.2013 05:15 -2,0 C 92 % 1027,5 hPa 0,0 l/m 0,0 km/h (0 Bft) NO 45 -3,1 C -2,0 C 0,0 km/h (0 Bft)
29.11.2013 05:20 -2,0 C 92 % 1027,5 hPa 0,0 l/m 0,0 km/h (0 Bft) NO 45 -3,1 C -2,0 C 0,0 km/h (0 Bft)
29.11.2013 05:25 -2,1 C 92 % 1027,4 hPa 0,0 l/m 0,0 km/h (0 Bft) NO 45 -3,2 C -2,1 C 0,0 km/h (0 Bft)
29.11.2013 05:30 -2,1 C 92 % 1027,4 hPa 0,0 l/m 0,0 km/h (0 Bft) NO 45 -3,2 C -2,1 C 0,0 km/h (0 Bft)
29.11.2013 05:35 -2,1 C 92 % 1027,4 hPa 0,0 l/m 0,0 km/h (0 Bft) NO 45 -3,2 C -2,2 C 0,0 km/h (0 Bft)
29.11.2013 05:40 -2,2 C 92 % 1027,4 hPa 0,0 l/m 0,0 km/h (0 Bft) NO 45 -3,3 C -2,2 C 0,0 km/h (0 Bft)
29.11.2013 05:45 -2,3 C 92 % 1027,1 hPa 0,0 l/m 0,0 km/h (0 Bft) O-NO 67 -3,4 C -2,2 C 0,0 km/h (0 Bft)
29.11.2013 05:50 -2,3 C 92 % 1027,1 hPa 0,0 l/m 0,0 km/h (0 Bft) O-NO 67 -3,4 C -2,3 C 0,0 km/h (0 Bft)
29.11.2013 05:55 -2,4 C 92 % 1027,1 hPa 0,0 l/m 0,0 km/h (0 Bft) NO 45 -3,5 C -2,3 C 0,0 km/h (0 Bft)
29.11.2013 06:00 -2,4 C 92 % 1027,1 hPa 0,0 l/m 0,0 km/h (0 Bft) NO 45 -3,5 C -2,3 C 0,0 km/h (0 Bft)
29.11.2013 06:05 -2,3 C 92 % 1027,4 hPa 0,0 l/m 0,0 km/h (0 Bft) O-NO 67 -3,4 C -2,3 C 0,0 km/h (0 Bft)
29.11.2013 06:10 -2,3 C 92 % 1027,4 hPa 0,0 l/m 0,0 km/h (0 Bft) O-NO 67 -3,4 C -2,3 C 0,0 km/h (0 Bft)
29.11.2013 06:15 -2,4 C 92 % 1027,4 hPa 0,0 l/m 0,0 km/h (0 Bft) O-NO 67 -3,5 C -2,3 C 0,0 km/h (0 Bft)
29.11.2013 06:19 -2,4 C 92 % 1027,4 hPa 0,0 l/m 0,0 km/h (0 Bft) NO 45 -3,5 C -2,3 C 0,0 km/h (0 Bft)
29.11.2013 06:20 -2,4 C 92 % 1027,4 hPa 0,0 l/m 0,0 km/h (0 Bft) NO 45 -3,5 C -2,3 C 0,0 km/h (0 Bft)
29.11.2013 06:25 -2,4 C 92 % 1027,2 hPa 0,0 l/m 0,0 km/h (0 Bft) NO 45 -3,5 C -2,3 C 0,0 km/h (0 Bft)
29.11.2013 06:30 -2,4 C 92 % 1027,2 hPa 0,0 l/m 0,0 km/h (0 Bft) NO 45 -3,5 C -2,3 C 0,0 km/h (0 Bft)
29.11.2013 06:35 -2,3 C 92 % 1027,2 hPa 0,0 l/m 0,0 km/h (0 Bft) NO 45 -3,4 C -2,3 C 0,0 km/h (0 Bft)
29.11.2013 06:40 -2,3 C 92 % 1027,2 hPa 0,0 l/m 0,0 km/h (0 Bft) NO 45 -3,4 C -2,3 C 0,0 km/h (0 Bft)
29.11.2013 06:45 -2,3 C 92 % 1027,3 hPa 0,0 l/m 0,0 km/h (0 Bft) NO 45 -3,4 C -2,3 C 0,0 km/h (0 Bft)
29.11.2013 06:50 -2,3 C 92 % 1027,3 hPa 0,0 l/m 0,0 km/h (0 Bft) NO 45 -3,4 C -2,3 C 0,0 km/h (0 Bft)
29.11.2013 06:55 -2,3 C 93 % 1027,3 hPa 0,0 l/m 0,0 km/h (0 Bft) O-NO 67 -3,3 C -2,3 C 0,0 km/h (0 Bft)
29.11.2013 07:00 -2,2 C 93 % 1027,3 hPa 0,0 l/m 0,0 km/h (0 Bft) NO 45 -3,2 C -2,3 C 0,0 km/h (0 Bft)
29.11.2013 07:05 -2,2 C 93 % 1027,2 hPa 0,0 l/m 0,0 km/h (0 Bft) O-NO 67 -3,2 C -2,3 C 0,0 km/h (0 Bft)
29.11.2013 07:10 -2,2 C 93 % 1027,2 hPa 0,0 l/m 0,0 km/h (0 Bft) O-NO 67 -3,2 C -2,2 C 0,0 km/h (0 Bft)
29.11.2013 07:15 -2,2 C 93 % 1027,2 hPa 0,0 l/m 0,0 km/h (0 Bft) O-NO 67 -3,2 C -2,2 C 0,0 km/h (0 Bft)
29.11.2013 07:19 -2,2 C 93 % 1027,2 hPa 0,0 l/m 0,0 km/h (0 Bft) O-NO 67 -3,2 C -2,2 C 0,0 km/h (0 Bft)
29.11.2013 07:20 -2,2 C 93 % 1027,2 hPa 0,0 l/m 0,0 km/h (0 Bft) O-NO 67 -3,2 C -2,2 C 0,0 km/h (0 Bft)
29.11.2013 07:25 -2,2 C 93 % 1027,1 hPa 0,0 l/m 0,0 km/h (0 Bft) O-NO 67 -3,2 C -2,2 C 0,0 km/h (0 Bft)
29.11.2013 07:30 -2,2 C 93 % 1027,1 hPa 0,0 l/m 0,0 km/h (0 Bft) NO 45 -3,2 C -2,2 C 0,0 km/h (0 Bft)
29.11.2013 07:35 -2,2 C 93 % 1027,1 hPa 0,0 l/m 0,0 km/h (0 Bft) NO 45 -3,2 C -2,2 C 0,0 km/h (0 Bft)
29.11.2013 07:40 -2,3 C 93 % 1027,1 hPa 0,0 l/m 0,0 km/h (0 Bft) NO 45 -3,3 C -2,2 C 0,0 km/h (0 Bft)
29.11.2013 07:45 -2,2 C 93 % 1027,1 hPa 0,0 l/m 0,0 km/h (0 Bft) NO 45 -3,2 C -2,2 C 0,0 km/h (0 Bft)
29.11.2013 07:50 -2,2 C 93 % 1027,1 hPa 0,0 l/m 0,0 km/h (0 Bft) NO 45 -3,2 C -2,2 C 0,0 km/h (0 Bft)
29.11.2013 07:55 -2,1 C 93 % 1027,1 hPa 0,0 l/m 0,0 km/h (0 Bft) O-NO 67 -3,1 C -2,2 C 0,0 km/h (0 Bft)
29.11.2013 08:00 -1,9 C 93 % 1027,1 hPa 0,0 l/m 0,0 km/h (0 Bft) O-NO 67 -2,9 C -2,1 C 0,0 km/h (0 Bft)
29.11.2013 08:05 -1,9 C 93 % 1027,3 hPa 0,0 l/m 0,0 km/h (0 Bft) NO 45 -2,9 C -2,0 C 0,0 km/h (0 Bft)
29.11.2013 08:10 -1,9 C 93 % 1027,3 hPa 0,0 l/m 0,0 km/h (0 Bft) NO 45 -2,9 C -1,9 C 0,0 km/h (0 Bft)
29.11.2013 08:15 -1,8 C 93 % 1027,3 hPa 0,0 l/m 0,0 km/h (0 Bft) NO 45 -2,8 C -1,8 C 0,0 km/h (0 Bft)
29.11.2013 08:20 -1,7 C 93 % 1027,3 hPa 0,0 l/m 0,0 km/h (0 Bft) NO 45 -2,7 C -1,8 C 0,0 km/h (0 Bft)
29.11.2013 08:25 -1,6 C 93 % 1027,0 hPa 0,0 l/m 0,0 km/h (0 Bft) NO 45 -2,6 C -1,7 C 0,0 km/h (0 Bft)
29.11.2013 08:30 -1,6 C 93 % 1027,0 hPa 0,0 l/m 0,0 km/h (0 Bft) NO 45 -2,6 C -1,6 C 0,0 km/h (0 Bft)
29.11.2013 08:35 -1,3 C 93 % 1027,0 hPa 0,0 l/m 0,0 km/h (0 Bft) O-NO 67 -2,3 C -1,5 C 0,0 km/h (0 Bft)
29.11.2013 08:40 -1,2 C 93 % 1027,0 hPa 0,0 l/m 0,0 km/h (0 Bft) O-NO 67 -2,2 C -1,4 C 0,0 km/h (0 Bft)
29.11.2013 08:45 -0,9 C 93 % 1027,1 hPa 0,0 l/m 0,0 km/h (0 Bft) O-NO 67 -1,9 C -1,1 C 0,0 km/h (0 Bft)
29.11.2013 08:50 -0,7 C 93 % 1027,1 hPa 0,0 l/m 0,0 km/h (0 Bft) O-NO 67 -1,7 C -0,9 C 0,0 km/h (0 Bft)
29.11.2013 08:55 -0,4 C 93 % 1027,1 hPa 0,0 l/m 0,0 km/h (0 Bft) O-NO 67 -1,4 C -0,6 C 0,0 km/h (0 Bft)
29.11.2013 09:00 -0,3 C 93 % 1027,1 hPa 0,0 l/m 0,0 km/h (0 Bft) O-NO 67 -1,3 C -0,4 C 0,0 km/h (0 Bft)
29.11.2013 09:05 -0,2 C 93 % 1026,8 hPa 0,0 l/m 0,0 km/h (0 Bft) O-NO 67 -1,2 C -0,2 C 0,0 km/h (0 Bft)
29.11.2013 09:10 -0,5 C 93 % 1026,8 hPa 0,0 l/m 0,0 km/h (0 Bft) NO 45 -1,5 C -0,1 C 0,0 km/h (0 Bft)
29.11.2013 09:15 -0,3 C 93 % 1026,8 hPa 0,0 l/m 0,0 km/h (0 Bft) NO 45 -1,3 C 0,1 C 0,0 km/h (0 Bft)
29.11.2013 09:20 0,0 C 93 % 1026,8 hPa 0,0 l/m 0,0 km/h (0 Bft) NO 45 -1,0 C 0,2 C 0,0 km/h (0 Bft)
29.11.2013 09:25 0,1 C 92 % 1026,4 hPa 0,0 l/m 0,0 km/h (0 Bft) NO 45 -1,0 C 0,5 C 0,0 km/h (0 Bft)
29.11.2013 09:30 0,2 C 92 % 1026,4 hPa 0,0 l/m 0,0 km/h (0 Bft) NO 45 -0,9 C 0,7 C 0,0 km/h (0 Bft)
29.11.2013 09:35 0,4 C 92 % 1026,4 hPa 0,0 l/m 0,0 km/h (0 Bft) O-NO 67 -0,7 C 0,9 C 0,0 km/h (0 Bft)
29.11.2013 09:40 0,6 C 92 % 1026,4 hPa 0,0 l/m 0,0 km/h (0 Bft) O-NO 67 -0,5 C 1,0 C 0,0 km/h (0 Bft)
29.11.2013 09:45 0,8 C 92 % 1026,2 hPa 0,0 l/m 0,0 km/h (0 Bft) O-NO 67 -0,3 C 1,3 C 0,0 km/h (0 Bft)
29.11.2013 09:50 1,2 C 92 % 1026,2 hPa 0,0 l/m 0,0 km/h (0 Bft) O-NO 67 0,0 C 1,4 C 0,0 km/h (0 Bft)
29.11.2013 09:55 1,3 C 91 % 1026,2 hPa 0,0 l/m 0,0 km/h (0 Bft) O-NO 67 -0,0 C 1,8 C 0,0 km/h (0 Bft)
29.11.2013 10:00 1,6 C 91 % 1026,2 hPa 0,0 l/m 0,0 km/h (0 Bft) O-NO 67 0,3 C 2,1 C 0,0 km/h (0 Bft)
29.11.2013 10:05 1,6 C 91 % 1026,3 hPa 0,0 l/m 0,0 km/h (0 Bft) NO 45 0,3 C 2,3 C 0,0 km/h (0 Bft)
29.11.2013 10:10 2,0 C 91 % 1026,3 hPa 0,0 l/m 0,0 km/h (0 Bft) NO 45 0,7 C 2,3 C 0,0 km/h (0 Bft)
29.11.2013 10:15 2,2 C 91 % 1026,3 hPa 0,0 l/m 0,0 km/h (0 Bft) O-NO 67 0,9 C 2,7 C 0,0 km/h (0 Bft)
29.11.2013 10:20 2,7 C 91 % 1026,3 hPa 0,0 l/m 0,0 km/h (0 Bft) S 180 1,4 C 3,0 C 0,0 km/h (0 Bft)
29.11.2013 10:25 2,7 C 89 % 1026,2 hPa 0,0 l/m 0,0 km/h (0 Bft) S 180 1,1 C 3,5 C 0,0 km/h (0 Bft)
29.11.2013 10:30 2,7 C 89 % 1026,2 hPa 0,0 l/m 0,0 km/h (0 Bft) S 180 1,1 C 3,6 C 0,0 km/h (0 Bft)
29.11.2013 10:35 3,0 C 87 % 1026,2 hPa 0,0 l/m 0,0 km/h (0 Bft) S 180 1,1 C 3,9 C 0,0 km/h (0 Bft)
29.11.2013 10:40 3,2 C 86 % 1026,2 hPa 0,0 l/m 0,0 km/h (0 Bft) S 180 1,1 C 4,1 C 0,0 km/h (0 Bft)
29.11.2013 10:45 3,0 C 85 % 1026,0 hPa 0,0 l/m 0,0 km/h (0 Bft) S-SW 202 0,7 C 4,2 C 0,0 km/h (0 Bft)
29.11.2013 10:50 2,9 C 85 % 1026,0 hPa 0,0 l/m 0,0 km/h (0 Bft) S-SW 202 0,6 C 4,1 C 0,0 km/h (0 Bft)
29.11.2013 10:55 2,8 C 85 % 1026,0 hPa 0,0 l/m 0,0 km/h (0 Bft) S-SW 202 0,5 C 4,0 C 0,0 km/h (0 Bft)
29.11.2013 11:00 2,2 C 85 % 1026,0 hPa 0,0 l/m 0,0 km/h (0 Bft) S-SW 202 -0,1 C 4,4 C 0,0 km/h (0 Bft)
29.11.2013 11:05 2,1 C 85 % 1025,6 hPa 0,0 l/m 0,0 km/h (0 Bft) S-SW 202 -0,2 C 5,2 C 0,0 km/h (0 Bft)
29.11.2013 11:10 1,8 C 85 % 1025,6 hPa 0,0 l/m 0,0 km/h (0 Bft) S-SW 202 -0,4 C 5,1 C 0,0 km/h (0 Bft)
29.11.2013 11:15 0,9 C 85 % 1025,6 hPa 0,0 l/m 0,0 km/h (0 Bft) S-SW 202 -1,3 C 4,3 C 0,0 km/h (0 Bft)
29.11.2013 11:20 0,6 C 85 % 1025,6 hPa 0,0 l/m 0,0 km/h (0 Bft) S-SW 202 -1,6 C 3,9 C 0,0 km/h (0 Bft)
29.11.2013 11:25 0,4 C 86 % 1025,1 hPa 0,0 l/m 0,0 km/h (0 Bft) S 180 -1,7 C 2,9 C 0,0 km/h (0 Bft)
29.11.2013 11:30 0,3 C 86 % 1025,1 hPa 0,0 l/m 0,0 km/h (0 Bft) S-SO 157 -1,8 C 2,4 C 0,0 km/h (0 Bft)
29.11.2013 11:35 0,7 C 86 % 1025,1 hPa 0,0 l/m 0,0 km/h (0 Bft) S 180 -1,4 C 2,7 C 0,0 km/h (0 Bft)
29.11.2013 11:40 0,9 C 87 % 1025,1 hPa 0,0 l/m 0,0 km/h (0 Bft) S 180 -1,0 C 2,7 C 0,0 km/h (0 Bft)
29.11.2013 11:45 1,1 C 86 % 1024,8 hPa 0,0 l/m 0,0 km/h (0 Bft) S-SW 202 -1,0 C 2,7 C 0,0 km/h (0 Bft)
29.11.2013 11:50 1,1 C 86 % 1024,8 hPa 0,0 l/m 0,0 km/h (0 Bft) S-SW 202 -1,0 C 2,7 C 0,0 km/h (0 Bft)
29.11.2013 11:55 1,7 C 86 % 1024,8 hPa 0,0 l/m 0,2 km/h (0 Bft) S-SO 157 -0,4 C 2,9 C 0,0 km/h (0 Bft)
29.11.2013 12:00 2,4 C 86 % 1024,8 hPa 0,0 l/m 0,8 km/h (0 Bft) S-SW 202 0,3 C 3,3 C 3,9 km/h (1 Bft)
29.11.2013 12:05 2,3 C 83 % 1024,6 hPa 0,0 l/m 2,3 km/h (1 Bft) SW 225 -0,3 C 3,7 C 5,0 km/h (1 Bft)
29.11.2013 12:11 2,3 C 82 % 1024,6 hPa 0,0 l/m 1,8 km/h (1 Bft) S 180 -0,4 C 3,2 C 0,0 km/h (0 Bft)
29.11.2013 12:12 2,3 C 82 % 1024,6 hPa 0,0 l/m 1,8 km/h (1 Bft) S 180 -0,4 C 3,2 C 0,0 km/h (0 Bft)
29.11.2013 12:13 2,3 C 82 % 1024,6 hPa 0,0 l/m 1,8 km/h (1 Bft) S 180 -0,4 C 3,2 C 0,0 km/h (0 Bft)
29.11.2013 12:14 2,3 C 82 % 1024,6 hPa 0,0 l/m 1,8 km/h (1 Bft) S 180 -0,4 C 3,2 C 0,0 km/h (0 Bft)
29.11.2013 12:15 2,3 C 82 % 1024,6 hPa 0,0 l/m 1,8 km/h (1 Bft) S 180 -0,4 C 3,2 C 0,0 km/h (0 Bft)
29.11.2013 12:25 2,0 C 79 % 1024,0 hPa 0,0 l/m 0,3 km/h (0 Bft) S-SO 157 -1,2 C 3,4 C 0,0 km/h (0 Bft)
29.11.2013 12:30 2,3 C 79 % 1024,0 hPa 0,0 l/m 0,8 km/h (0 Bft) W-SW 247 -1,0 C 3,6 C 0,0 km/h (0 Bft)
29.11.2013 12:36 2,9 C 79 % 1024,0 hPa 0,0 l/m 1,8 km/h (1 Bft) S 180 -0,4 C 3,8 C 2,4 km/h (1 Bft)
29.11.2013 12:40 3,0 C 78 % 1024,0 hPa 0,0 l/m 2,4 km/h (1 Bft) SW 225 -0,5 C 4,0 C 3,7 km/h (1 Bft)
29.11.2013 12:47 2,3 C 76 % 1023,8 hPa 0,0 l/m 2,4 km/h (1 Bft) S 180 -1,5 C 4,0 C 3,1 km/h (1 Bft)
29.11.2013 12:50 2,3 C 76 % 1023,8 hPa 0,0 l/m 2,4 km/h (1 Bft) S 180 -1,5 C 4,0 C 3,1 km/h (1 Bft)
29.11.2013 12:58 2,7 C 77 % 1023,8 hPa 0,0 l/m 1,3 km/h (1 Bft) S 180 -0,9 C 3,9 C 5,3 km/h (1 Bft)
29.11.2013 13:00 2,7 C 77 % 1023,8 hPa 0,0 l/m 1,3 km/h (1 Bft) S 180 -0,9 C 3,9 C 0,0 km/h (0 Bft)
29.11.2013 13:09 3,0 C 73 % 1023,4 hPa 0,0 l/m 1,8 km/h (1 Bft) S 180 -1,4 C 4,9 C 2,9 km/h (1 Bft)
29.11.2013 13:10 3,0 C 73 % 1023,4 hPa 0,0 l/m 1,8 km/h (1 Bft) S 180 -1,4 C 4,9 C 2,9 km/h (1 Bft)
29.11.2013 13:20 2,9 C 72 % 1023,4 hPa 0,0 l/m 3,7 km/h (1 Bft) SO 135 -1,6 C 4,0 C 6,8 km/h (2 Bft)
29.11.2013 13:25 2,6 C 71 % 1022,9 hPa 0,0 l/m 4,0 km/h (1 Bft) S-SO 157 -2,1 C 3,4 C 6,9 km/h (2 Bft)
29.11.2013 13:31 2,7 C 72 % 1022,9 hPa 0,0 l/m 4,3 km/h (1 Bft) S-SO 157 -1,8 C 2,9 C 4,0 km/h (1 Bft)
29.11.2013 13:35 2,7 C 72 % 1022,9 hPa 0,0 l/m 4,2 km/h (1 Bft) S 180 -1,8 C 2,4 C 7,2 km/h (2 Bft)
29.11.2013 13:42 2,7 C 73 % 1022,6 hPa 0,0 l/m 3,1 km/h (1 Bft) SW 225 -1,6 C 2,8 C 4,2 km/h (1 Bft)
29.11.2013 13:45 2,7 C 73 % 1022,6 hPa 0,0 l/m 3,1 km/h (1 Bft) SW 225 -1,6 C 2,8 C 4,2 km/h (1 Bft)
29.11.2013 13:53 2,5 C 73 % 1022,6 hPa 0,0 l/m 2,9 km/h (1 Bft) S 180 -1,8 C 2,8 C 5,6 km/h (1 Bft)
29.11.2013 13:55 2,5 C 73 % 1022,6 hPa 0,0 l/m 2,9 km/h (1 Bft) S 180 -1,8 C 2,8 C 5,6 km/h (1 Bft)
29.11.2013 14:04 2,1 C 71 % 1022,2 hPa 0,0 l/m 5,1 km/h (1 Bft) S-SW 202 -2,6 C 1,2 C 7,9 km/h (2 Bft)
29.11.2013 14:05 2,1 C 71 % 1022,2 hPa 0,0 l/m 5,1 km/h (1 Bft) S-SW 202 -2,6 C 1,2 C 5,8 km/h (2 Bft)
29.11.2013 14:15 1,6 C 72 % 1022,2 hPa 0,0 l/m 3,5 km/h (1 Bft) S 180 -2,9 C 1,7 C 4,3 km/h (1 Bft)
29.11.2013 14:20 1,3 C 72 % 1022,2 hPa 0,0 l/m 3,5 km/h (1 Bft) S-SW 202 -3,2 C 1,4 C 5,3 km/h (1 Bft)
29.11.2013 14:26 1,0 C 72 % 1022,4 hPa 0,0 l/m 4,8 km/h (1 Bft) S-SO 157 -3,5 C 0,7 C 5,6 km/h (1 Bft)
29.11.2013 14:30 0,8 C 73 % 1022,4 hPa 0,0 l/m 5,1 km/h (1 Bft) S-SW 202 -3,5 C 1,1 C 5,6 km/h (1 Bft)
29.11.2013 14:37 0,7 C 75 % 1022,4 hPa 0,0 l/m 4,8 km/h (1 Bft) S-SO 157 -3,2 C 1,1 C 5,0 km/h (1 Bft)
29.11.2013 14:40 0,7 C 75 % 1022,4 hPa 0,0 l/m 4,8 km/h (1 Bft) S-SO 157 -3,2 C 1,1 C 5,0 km/h (1 Bft)
29.11.2013 14:48 0,6 C 76 % 1022,2 hPa 0,0 l/m 4,3 km/h (1 Bft) O 90 -3,1 C 0,7 C 5,8 km/h (2 Bft)
29.11.2013 14:50 0,6 C 76 % 1022,2 hPa 0,0 l/m 4,3 km/h (1 Bft) O 90 -3,1 C 0,7 C 5,8 km/h (2 Bft)
29.11.2013 14:59 0,7 C 76 % 1022,2 hPa 0,0 l/m 4,5 km/h (1 Bft) S-SW 202 -3,0 C 0,3 C 6,0 km/h (2 Bft)
29.11.2013 15:00 0,7 C 76 % 1022,2 hPa 0,0 l/m 4,5 km/h (1 Bft) S-SW 202 -3,0 C 0,3 C 6,0 km/h (2 Bft)
29.11.2013 15:10 1,0 C 76 % 1022,1 hPa 0,0 l/m 4,3 km/h (1 Bft) S-SO 157 -2,7 C 0,6 C 3,5 km/h (1 Bft)
29.11.2013 15:15 1,0 C 76 % 1022,1 hPa 0,0 l/m 4,2 km/h (1 Bft) S 180 -2,7 C 0,5 C 3,1 km/h (1 Bft)
29.11.2013 15:21 1,0 C 77 % 1022,1 hPa 0,0 l/m 4,2 km/h (1 Bft) S 180 -2,6 C 0,5 C 3,9 km/h (1 Bft)
29.11.2013 15:25 0,9 C 78 % 1022,1 hPa 0,0 l/m 4,5 km/h (1 Bft) S 180 -2,5 C 0,1 C 7,6 km/h (2 Bft)
29.11.2013 15:32 0,7 C 78 % 1022,1 hPa 0,0 l/m 3,9 km/h (1 Bft) S 180 -2,7 C 0,1 C 3,1 km/h (1 Bft)
29.11.2013 15:35 0,7 C 78 % 1022,1 hPa 0,0 l/m 3,9 km/h (1 Bft) S 180 -2,7 C 0,1 C 3,1 km/h (1 Bft)
29.11.2013 15:43 0,6 C 79 % 1022,4 hPa 0,0 l/m 3,4 km/h (1 Bft) S 180 -2,6 C 0,2 C 4,5 km/h (1 Bft)
29.11.2013 15:45 0,6 C 79 % 1022,4 hPa 0,0 l/m 3,4 km/h (1 Bft) S 180 -2,6 C 0,2 C 4,5 km/h (1 Bft)
29.11.2013 15:54 0,4 C 79 % 1022,4 hPa 0,0 l/m 6,0 km/h (2 Bft) S-SO 157 -2,8 C -1,2 C 13,8 km/h (3 Bft)
29.11.2013 15:55 0,4 C 79 % 1022,4 hPa 0,0 l/m 6,0 km/h (2 Bft) S-SO 157 -2,8 C -1,2 C 13,8 km/h (3 Bft)
29.11.2013 16:05 0,3 C 80 % 1021,8 hPa 0,0 l/m 5,5 km/h (1 Bft) S 180 -2,7 C -1,2 C 3,2 km/h (1 Bft)
29.11.2013 16:10 0,3 C 80 % 1021,8 hPa 0,0 l/m 5,3 km/h (1 Bft) S-SO 157 -2,7 C -1,3 C 5,6 km/h (1 Bft)
29.11.2013 16:16 0,2 C 81 % 1021,8 hPa 0,0 l/m 7,1 km/h (2 Bft) S-SW 202 -2,7 C -2,8 C 15,1 km/h (3 Bft)
29.11.2013 16:20 0,1 C 81 % 1021,8 hPa 0,0 l/m 6,8 km/h (2 Bft) S-SO 157 -2,8 C -2,4 C 6,4 km/h (2 Bft)
29.11.2013 16:27 -0,1 C 81 % 1021,4 hPa 0,0 l/m 5,1 km/h (1 Bft) O-SO 112 -3,0 C -1,6 C 6,4 km/h (2 Bft)
29.11.2013 16:30 -0,1 C 81 % 1021,4 hPa 0,0 l/m 5,1 km/h (1 Bft) O-SO 112 -3,0 C -1,6 C 6,4 km/h (2 Bft)
29.11.2013 16:38 -0,4 C 82 % 1021,4 hPa 0,0 l/m 5,5 km/h (1 Bft) S-SO 157 -3,1 C -2,1 C 5,0 km/h (1 Bft)
29.11.2013 16:40 -0,4 C 82 % 1021,4 hPa 0,0 l/m 5,5 km/h (1 Bft) S-SO 157 -3,1 C -2,1 C 5,0 km/h (1 Bft)
29.11.2013 16:49 -0,5 C 83 % 1021,2 hPa 0,0 l/m 3,1 km/h (1 Bft) S-SO 157 -3,0 C -0,9 C 2,1 km/h (1 Bft)
29.11.2013 16:50 -0,5 C 83 % 1021,2 hPa 0,0 l/m 3,1 km/h (1 Bft) S-SO 157 -3,0 C -0,9 C 2,1 km/h (1 Bft)
29.11.2013 17:00 -0,5 C 83 % 1021,2 hPa 0,0 l/m 2,4 km/h (1 Bft) S-SO 157 -3,0 C -0,4 C 4,7 km/h (1 Bft)
29.11.2013 17:05 -0,5 C 83 % 1021,1 hPa 0,0 l/m 2,9 km/h (1 Bft) S-SO 157 -3,0 C -0,8 C 3,5 km/h (1 Bft)
29.11.2013 17:11 -0,4 C 84 % 1021,1 hPa 0,0 l/m 4,3 km/h (1 Bft) S-SW 202 -2,8 C -1,7 C 6,9 km/h (2 Bft)
29.11.2013 17:15 -0,4 C 84 % 1021,1 hPa 0,0 l/m 6,1 km/h (2 Bft) S-SW 202 -2,8 C -2,6 C 8,5 km/h (2 Bft)
29.11.2013 17:22 -0,4 C 83 % 1021,1 hPa 0,0 l/m 8,4 km/h (2 Bft) SO 135 -2,9 C -5,4 C 5,6 km/h (1 Bft)
29.11.2013 17:25 -0,4 C 83 % 1021,1 hPa 0,0 l/m 8,4 km/h (2 Bft) SO 135 -2,9 C -5,4 C 17,2 km/h (3 Bft)
29.11.2013 17:33 -0,5 C 82 % 1021,1 hPa 0,0 l/m 7,1 km/h (2 Bft) S-SO 157 -3,2 C -3,7 C 7,4 km/h (2 Bft)
29.11.2013 17:35 -0,5 C 82 % 1021,1 hPa 0,0 l/m 7,1 km/h (2 Bft) S-SO 157 -3,2 C -3,7 C 7,4 km/h (2 Bft)
29.11.2013 17:44 -0,7 C 82 % 1020,3 hPa 0,0 l/m 5,5 km/h (1 Bft) S 180 -3,4 C -2,5 C 10,3 km/h (2 Bft)
29.11.2013 17:45 -0,7 C 82 % 1020,3 hPa 0,0 l/m 5,5 km/h (1 Bft) S 180 -3,4 C -2,5 C 10,3 km/h (2 Bft)
29.11.2013 17:55 -0,9 C 83 % 1020,3 hPa 0,0 l/m 6,6 km/h (2 Bft) S-SW 202 -3,4 C -3,3 C 5,8 km/h (2 Bft)
29.11.2013 18:00 -0,9 C 83 % 1020,3 hPa 0,0 l/m 6,4 km/h (2 Bft) S 180 -3,4 C -3,1 C 7,4 km/h (2 Bft)
29.11.2013 18:06 -0,9 C 83 % 1020,6 hPa 0,0 l/m 6,4 km/h (2 Bft) SO 135 -3,4 C -3,2 C 8,2 km/h (2 Bft)
29.11.2013 18:10 -1,0 C 83 % 1020,6 hPa 0,0 l/m 7,6 km/h (2 Bft) S 180 -3,5 C -5,1 C 13,2 km/h (3 Bft)
29.11.2013 18:17 -1,0 C 83 % 1020,6 hPa 0,0 l/m 6,4 km/h (2 Bft) S 180 -3,5 C -3,2 C 7,1 km/h (2 Bft)
29.11.2013 18:20 -1,0 C 83 % 1020,6 hPa 0,0 l/m 6,4 km/h (2 Bft) S 180 -3,5 C -3,2 C 7,1 km/h (2 Bft)
29.11.2013 18:28 -1,0 C 84 % 1020,2 hPa 0,0 l/m 5,8 km/h (2 Bft) SW 225 -3,4 C -2,9 C 8,0 km/h (2 Bft)
29.11.2013 18:30 -1,0 C 84 % 1020,2 hPa 0,0 l/m 5,8 km/h (2 Bft) SW 225 -3,4 C -2,9 C 8,0 km/h (2 Bft)
29.11.2013 18:39 -1,0 C 84 % 1020,2 hPa 0,0 l/m 6,6 km/h (2 Bft) S-SW 202 -3,4 C -3,5 C 10,1 km/h (2 Bft)
29.11.2013 18:40 -1,0 C 84 % 1020,2 hPa 0,0 l/m 6,6 km/h (2 Bft) S-SW 202 -3,4 C -3,5 C 10,1 km/h (2 Bft)
29.11.2013 18:50 -0,9 C 84 % 1020,4 hPa 0,0 l/m 7,4 km/h (2 Bft) S 180 -3,3 C -4,7 C 6,8 km/h (2 Bft)
29.11.2013 18:55 -0,9 C 85 % 1020,4 hPa 0,0 l/m 7,1 km/h (2 Bft) S 180 -3,1 C -4,1 C 6,1 km/h (2 Bft)
29.11.2013 19:01 -0,9 C 85 % 1020,4 hPa 0,0 l/m 6,6 km/h (2 Bft) S 180 -3,1 C -3,4 C 7,4 km/h (2 Bft)
29.11.2013 19:05 -0,9 C 85 % 1020,5 hPa 0,0 l/m 6,6 km/h (2 Bft) S-SO 157 -3,1 C -3,4 C 7,1 km/h (2 Bft)
29.11.2013 19:12 -0,9 C 85 % 1020,5 hPa 0,0 l/m 6,6 km/h (2 Bft) O 90 -3,1 C -3,4 C 7,2 km/h (2 Bft)
29.11.2013 19:15 -0,9 C 85 % 1020,5 hPa 0,0 l/m 6,6 km/h (2 Bft) O 90 -3,1 C -3,4 C 7,2 km/h (2 Bft)
29.11.2013 19:23 -0,9 C 86 % 1020,4 hPa 0,0 l/m 5,5 km/h (1 Bft) S 180 -2,9 C -2,7 C 6,0 km/h (2 Bft)
29.11.2013 19:25 -0,9 C 86 % 1020,4 hPa 0,0 l/m 5,5 km/h (1 Bft) S 180 -2,9 C -2,7 C 6,0 km/h (2 Bft)
29.11.2013 19:34 -0,8 C 86 % 1020,4 hPa 0,0 l/m 5,6 km/h (1 Bft) S-SO 157 -2,8 C -2,8 C 12,4 km/h (3 Bft)
29.11.2013 19:35 -0,8 C 86 % 1020,4 hPa 0,0 l/m 5,6 km/h (1 Bft) S-SO 157 -2,8 C -2,8 C 12,4 km/h (3 Bft)
29.11.2013 19:45 -0,8 C 86 % 1020,1 hPa 0,0 l/m 6,4 km/h (2 Bft) SO 135 -2,8 C -3,1 C 6,3 km/h (2 Bft)
29.11.2013 19:50 -0,8 C 86 % 1020,1 hPa 0,0 l/m 6,0 km/h (2 Bft) S 180 -2,8 C -2,8 C 7,9 km/h (2 Bft)
29.11.2013 19:56 -0,7 C 86 % 1020,1 hPa 0,0 l/m 7,9 km/h (2 Bft) SO 135 -2,7 C -5,1 C 18,5 km/h (3 Bft)
29.11.2013 20:00 -0,7 C 86 % 1020,1 hPa 0,0 l/m 8,9 km/h (2 Bft) S 180 -2,7 C -6,5 C 9,2 km/h (2 Bft)
29.11.2013 20:07 -0,6 C 85 % 1020,2 hPa 0,0 l/m 8,4 km/h (2 Bft) S-SW 202 -2,8 C -5,6 C 20,9 km/h (4 Bft)
29.11.2013 20:10 -0,6 C 85 % 1020,2 hPa 0,0 l/m 8,4 km/h (2 Bft) S-SW 202 -2,8 C -5,6 C 12,7 km/h (3 Bft)
29.11.2013 20:18 -0,5 C 85 % 1020,2 hPa 0,0 l/m 8,7 km/h (2 Bft) S 180 -2,7 C -6,0 C 13,5 km/h (3 Bft)
29.11.2013 20:20 -0,5 C 85 % 1020,2 hPa 0,0 l/m 8,7 km/h (2 Bft) S 180 -2,7 C -6,0 C 13,5 km/h (3 Bft)
29.11.2013 20:29 -0,6 C 84 % 1020,0 hPa 0,0 l/m 8,2 km/h (2 Bft) S 180 -3,0 C -5,3 C 7,4 km/h (2 Bft)
29.11.2013 20:30 -0,6 C 84 % 1020,0 hPa 0,0 l/m 8,2 km/h (2 Bft) S 180 -3,0 C -5,3 C 7,4 km/h (2 Bft)
29.11.2013 20:40 -0,5 C 84 % 1020,0 hPa 0,0 l/m 9,5 km/h (2 Bft) S 180 -2,9 C -7,0 C 14,0 km/h (3 Bft)
29.11.2013 20:45 -0,6 C 84 % 1019,6 hPa 0,0 l/m 10,3 km/h (2 Bft) O-SO 112 -3,0 C -7,9 C 21,2 km/h (4 Bft)
29.11.2013 20:51 -0,5 C 84 % 1019,6 hPa 0,0 l/m 9,3 km/h (2 Bft) O 90 -2,9 C -6,9 C 15,1 km/h (3 Bft)
29.11.2013 20:55 -0,7 C 84 % 1019,6 hPa 0,0 l/m 7,9 km/h (2 Bft) SO 135 -3,1 C -5,0 C 14,8 km/h (3 Bft)
29.11.2013 21:02 -0,7 C 84 % 1019,0 hPa 0,0 l/m 10,3 km/h (2 Bft) SO 135 -3,1 C -8,3 C 9,2 km/h (2 Bft)
29.11.2013 21:05 -0,7 C 84 % 1019,0 hPa 0,0 l/m 10,3 km/h (2 Bft) SO 135 -3,1 C -8,3 C 9,2 km/h (2 Bft)
29.11.2013 21:13 -0,7 C 84 % 1019,0 hPa 0,0 l/m 7,7 km/h (2 Bft) S 180 -3,1 C -4,9 C 10,8 km/h (2 Bft)
29.11.2013 21:15 -0,7 C 84 % 1019,0 hPa 0,0 l/m 7,7 km/h (2 Bft) S 180 -3,1 C -4,9 C 10,8 km/h (2 Bft)
29.11.2013 21:24 -0,5 C 83 % 1018,4 hPa 0,0 l/m 6,1 km/h (2 Bft) SO 135 -3,0 C -2,8 C 5,1 km/h (1 Bft)
29.11.2013 21:25 -0,5 C 83 % 1018,4 hPa 0,0 l/m 6,1 km/h (2 Bft) SO 135 -3,0 C -2,8 C 5,1 km/h (1 Bft)
29.11.2013 21:35 -0,7 C 83 % 1018,4 hPa 0,0 l/m 2,7 km/h (1 Bft) O 90 -3,2 C -0,9 C 0,0 km/h (0 Bft)
29.11.2013 21:40 -0,7 C 83 % 1018,4 hPa 0,0 l/m 2,1 km/h (1 Bft) S-SO 157 -3,2 C -0,6 C 6,8 km/h (2 Bft)
29.11.2013 21:46 -0,5 C 83 % 1018,0 hPa 0,0 l/m 3,7 km/h (1 Bft) SO 135 -3,0 C -1,3 C 4,7 km/h (1 Bft)
29.11.2013 21:50 -0,5 C 83 % 1018,0 hPa 0,0 l/m 5,0 km/h (1 Bft) S 180 -3,0 C -2,1 C 8,0 km/h (2 Bft)
29.11.2013 21:57 -0,2 C 81 % 1018,0 hPa 0,0 l/m 4,2 km/h (1 Bft) S 180 -3,1 C -1,3 C 7,1 km/h (2 Bft)
29.11.2013 22:00 -0,2 C 81 % 1018,0 hPa 0,0 l/m 4,2 km/h (1 Bft) S 180 -3,1 C -1,3 C 7,1 km/h (2 Bft)
29.11.2013 22:08 0,0 C 79 % 1017,9 hPa 0,0 l/m 5,1 km/h (1 Bft) SO 135 -3,2 C -1,6 C 7,1 km/h (2 Bft)
29.11.2013 22:10 0,0 C 79 % 1017,9 hPa 0,0 l/m 5,1 km/h (1 Bft) SO 135 -3,2 C -1,6 C 7,1 km/h (2 Bft)
29.11.2013 22:19 0,1 C 78 % 1017,9 hPa 0,0 l/m 6,1 km/h (2 Bft) O-SO 112 -3,3 C -1,8 C 13,8 km/h (3 Bft)
29.11.2013 22:20 0,1 C 78 % 1017,9 hPa 0,0 l/m 6,1 km/h (2 Bft) O-SO 112 -3,3 C -1,8 C 13,8 km/h (3 Bft)
29.11.2013 22:30 -0,1 C 78 % 1017,5 hPa 0,0 l/m 6,4 km/h (2 Bft) S 180 -3,5 C -2,1 C 11,3 km/h (2 Bft)
29.11.2013 22:35 -0,1 C 79 % 1017,5 hPa 0,0 l/m 6,6 km/h (2 Bft) O-SO 112 -3,3 C -2,5 C 6,1 km/h (2 Bft)
29.11.2013 22:41 0,0 C 79 % 1017,5 hPa 0,0 l/m 7,1 km/h (2 Bft) SO 135 -3,2 C -3,1 C 7,1 km/h (2 Bft)
29.11.2013 22:45 0,0 C 79 % 1017,0 hPa 0,0 l/m 6,0 km/h (2 Bft) S 180 -3,2 C -2,0 C 6,4 km/h (2 Bft)
29.11.2013 22:52 -0,1 C 79 % 1017,0 hPa 0,0 l/m 6,3 km/h (2 Bft) S-SO 157 -3,3 C -2,0 C 7,9 km/h (2 Bft)
29.11.2013 22:55 -0,1 C 79 % 1017,0 hPa 0,0 l/m 6,3 km/h (2 Bft) S-SO 157 -3,3 C -2,0 C 7,9 km/h (2 Bft)
29.11.2013 23:03 -0,2 C 80 % 1016,9 hPa 0,0 l/m 8,2 km/h (2 Bft) S 180 -3,2 C -4,7 C 11,7 km/h (2 Bft)
29.11.2013 23:05 -0,2 C 80 % 1016,9 hPa 0,0 l/m 8,2 km/h (2 Bft) S 180 -3,2 C -4,7 C 11,7 km/h (2 Bft)
29.11.2013 23:14 -0,2 C 81 % 1016,9 hPa 0,0 l/m 9,5 km/h (2 Bft) SO 135 -3,1 C -6,5 C 9,8 km/h (2 Bft)
29.11.2013 23:15 -0,2 C 81 % 1016,9 hPa 0,0 l/m 9,5 km/h (2 Bft) SO 135 -3,1 C -6,5 C 9,8 km/h (2 Bft)
29.11.2013 23:25 0,0 C 81 % 1016,7 hPa 0,0 l/m 9,3 km/h (2 Bft) S 180 -2,9 C -6,1 C 12,7 km/h (3 Bft)
29.11.2013 23:30 0,0 C 81 % 1016,7 hPa 0,0 l/m 9,2 km/h (2 Bft) S 180 -2,9 C -5,9 C 11,3 km/h (2 Bft)
29.11.2013 23:36 0,1 C 82 % 1016,7 hPa 0,0 l/m 9,0 km/h (2 Bft) S-SO 157 -2,6 C -5,5 C 11,9 km/h (2 Bft)
29.11.2013 23:40 0,3 C 82 % 1016,7 hPa 0,0 l/m 8,7 km/h (2 Bft) S 180 -2,4 C -5,0 C 8,9 km/h (2 Bft)
29.11.2013 23:47 0,3 C 82 % 1016,4 hPa 0,0 l/m 8,5 km/h (2 Bft) S 180 -2,4 C -4,6 C 7,9 km/h (2 Bft)
29.11.2013 23:50 0,4 C 81 % 1016,4 hPa 0,0 l/m 8,2 km/h (2 Bft) S-SW 202 -2,5 C -4,1 C 10,3 km/h (2 Bft)
29.11.2013 23:58 0,5 C 82 % 1016,4 hPa 0,0 l/m 7,7 km/h (2 Bft) S 180 -2,2 C -3,2 C 7,9 km/h (2 Bft)
_ Min-Zeit 06:30 14:05 23:58 - 11:50 - - 06:30 21:05 21:35
Minimum _ -2,4 C 71 % 1016,4 hPa - 0,0 km/h (0 Bft) - - -3,5 C -8,3 C 0,0 km/h (0 Bft)
_ Max-Zeit 10:40 09:20 00:00 23:58 21:05 - - 10:20 11:05 20:45
Maximum _ 3,2 C 93 % 1028,6 hPa 0,0 l/m 10,3 km/h
SO (2 Bft)
- - 1,4 C 5,2 C 21,2 km/h
O-SO (4 Bft)
Durchschnitt _ -0,4 C 86 % 1023,9 hPa #0,0 l/m 2,8 km/h (1 Bft) S - -2,6 C -1,3 C 3,8 km/h (1 Bft)